Weather History for KHWD - January, 2014

Change the Weather History Date:

Wednesday, January 29, 2014

  Actual Average Record
Temperature  
Mean Temperature 59 °F 51 °F  
Max Temperature 63 °F 58 °F 70 °F (2009)
Min Temperature 54 °F 43 °F 33 °F (2002)
Degree Days  
Heating Degree Days 6    
Month to date heating degree days 329  
Since 1 July heating degree days 1179  
Cooling Degree Days 0    
Month to date cooling degree days 0  
Year to date cooling degree days 0  
Growing Degree Days 7 (Base 50)    
Moisture  
Dew Point 55 °F    
Average Humidity 92    
Maximum Humidity 100    
Minimum Humidity 84    
Precipitation  
Precipitation T in - 0.09 in (2001)
Month to date precipitation T  
Year to date precipitation T  
Since 1 July precipitation 1.20  
Sea Level Pressure  
Sea Level Pressure 30.14 in    
Wind  
Wind Speed 3 mph (WNW)    
Max Wind Speed 12 mph    
Max Gust Speed 14 mph    
Visibility 7 miles    
Events      
T = Trace of Precipitation, MM = Missing Value Source: NWS Daily Summary

Daily Weather History Graph

Daily Weather History Graph

Search for Another Location

Airport or City:

Trip Planner

Search our weather history database for the weather conditions in past years. The results will help you decide how hot, cold, wet, or windy it might be!

Date:

Astronomy

Jan. 29, 2014 Rise Set
Actual Time 7:14 AM PST 5:29 PM PST
Civil Twilight 6:46 AM PST 5:56 PM PST
Nautical Twilight 6:15 AM PST 6:28 PM PST
Astronomical Twilight 5:44 AM PST 6:59 PM PST
Moon 5:55 AM PST (1/29) 4:35 PM PST (1/29)
Length of Visible Light 11h 10m
Length of Day
10h 14m
Waning Crescent, 2% of the Moon is Illuminated
Jan 29
Waning Crescent
Jan 30
New
Feb 6
First Quarter
Feb 14
Full
Feb 22
Last Quarter

Hourly Weather History & Observations

Time (PST) Temp. Dew Point Humidity Pressure Visibility Wind Dir Wind Speed Gust Speed Precip Events Conditions
12:28 AM 55.4 °F 55.4 °F 100% 30.21 in 10.0 mi Calm Calm - N/A   Overcast
12:54 AM 55.9 °F 55.9 °F 100% 30.23 in 10.0 mi Calm Calm - N/A   Overcast
1:17 AM 55.4 °F 55.4 °F 100% 30.19 in 9.0 mi Calm Calm - N/A   Overcast
1:30 AM 55.4 °F 55.4 °F 100% 30.19 in 9.0 mi Calm Calm - N/A   Overcast
1:54 AM 55.9 °F 55.9 °F 100% 30.22 in 8.0 mi Calm Calm - N/A   Overcast
2:54 AM 55.9 °F 55.9 °F 100% 30.23 in 9.0 mi Calm Calm - N/A   Overcast
3:54 AM 55.0 °F 55.0 °F 100% 30.22 in 4.0 mi Calm Calm - N/A   Overcast
4:14 AM 55.4 °F 55.4 °F 100% 30.18 in 2.5 mi Calm Calm - N/A   Overcast
4:44 AM 55.4 °F 55.4 °F 100% 30.17 in 3.0 mi Calm Calm - N/A   Overcast
4:54 AM 55.0 °F 55.0 °F 100% 30.21 in 3.0 mi Calm Calm - N/A   Overcast
5:06 AM 53.6 °F 53.6 °F 100% 30.19 in 2.5 mi WNW 4.6 mph - N/A   Overcast
5:54 AM 54.0 °F 54.0 °F 100% 30.21 in 1.5 mi Calm Calm - N/A   Overcast
6:54 AM 54.0 °F 54.0 °F 100% 30.19 in 1.8 mi Calm Calm - N/A   Overcast
7:32 AM 53.6 °F 53.6 °F 100% 30.18 in 0.8 mi Calm Calm - N/A   Mist
7:54 AM 54.0 °F - N/A% 30.21 in 1.2 mi Calm Calm - N/A   Overcast
8:28 AM 53.6 °F 53.6 °F 100% 30.19 in 2.0 mi Calm Calm - N/A   Overcast
8:39 AM 53.6 °F 53.6 °F 100% 30.19 in 1.5 mi NW 3.5 mph - N/A   Overcast
8:54 AM 55.0 °F 55.0 °F 100% 30.22 in 2.5 mi Calm Calm - N/A   Overcast
9:02 AM 55.4 °F 55.4 °F 100% 30.19 in 3.0 mi Calm Calm - N/A   Overcast
9:19 AM 55.4 °F 55.4 °F 100% 30.18 in 4.0 mi SE 5.8 mph - N/A   Overcast
9:37 AM 57.2 °F 57.2 °F 100% 30.18 in 5.0 mi SSE 3.5 mph - N/A   Overcast
9:54 AM 57.9 °F 57.9 °F 100% 30.22 in 6.0 mi South 3.5 mph - N/A   Overcast
10:54 AM 61.0 °F 57.0 °F 87% 30.22 in 9.0 mi Calm Calm - N/A   Overcast
11:01 AM 60.8 °F 57.2 °F 88% 30.19 in 9.0 mi NW 4.6 mph - N/A   Overcast
11:24 AM 60.8 °F 57.2 °F 88% 30.18 in 8.0 mi Calm Calm - N/A   Overcast
11:54 AM 60.1 °F 55.9 °F 86% 30.20 in 8.0 mi WNW 5.8 mph - N/A   Overcast
12:54 PM 60.1 °F 57.9 °F 93% 30.16 in 10.0 mi Calm Calm - 0.00 in   Overcast
1:54 PM 61.0 °F 57.0 °F 87% 30.13 in 10.0 mi Calm Calm - N/A   Overcast
2:01 PM 60.8 °F 57.2 °F 88% 30.09 in 10.0 mi Calm Calm - N/A   Overcast
2:54 PM 61.0 °F 55.9 °F 83% 30.12 in 10.0 mi WNW 9.2 mph - N/A   Overcast
3:54 PM 60.1 °F 55.0 °F 83% 30.09 in 10.0 mi WNW 8.1 mph - N/A   Mostly Cloudy
4:16 PM 59.0 °F 55.4 °F 88% 30.06 in 10.0 mi WNW 10.4 mph - N/A   Overcast
4:27 PM 57.2 °F 55.4 °F 94% 30.06 in 10.0 mi WNW 6.9 mph - N/A   Overcast
4:54 PM 57.9 °F 55.0 °F 90% 30.08 in 10.0 mi WNW 9.2 mph - N/A   Overcast
5:54 PM 57.0 °F 54.0 °F 89% 30.07 in 10.0 mi NW 3.5 mph - N/A   Overcast
6:15 PM 55.4 °F 53.6 °F 94% 30.04 in 10.0 mi Calm Calm - N/A   Overcast
6:23 PM 55.4 °F 53.6 °F 94% 30.04 in 10.0 mi West 4.6 mph - N/A   Overcast
6:30 PM 55.4 °F 53.6 °F 94% 30.04 in 10.0 mi West 4.6 mph - N/A   Overcast
6:35 PM 55.4 °F 53.6 °F 94% 30.04 in 10.0 mi West 5.8 mph - N/A   Overcast
6:46 PM 55.4 °F 51.8 °F 88% 30.03 in 10.0 mi West 5.8 mph - N/A   Overcast
6:54 PM 55.9 °F 52.0 °F 87% 30.06 in 10.0 mi WSW 3.5 mph - N/A   Overcast
7:54 PM 55.0 °F 51.1 °F 86% 30.06 in 10.0 mi WNW 4.6 mph - N/A   Scattered Clouds
8:54 PM 55.0 °F 52.0 °F 89% 30.04 in 10.0 mi Calm Calm - N/A   Mostly Cloudy
9:27 PM 55.4 °F 51.8 °F 88% 30.01 in 10.0 mi Calm Calm - N/A   Mostly Cloudy
9:54 PM 55.0 °F 52.0 °F 89% 30.04 in 10.0 mi WNW 6.9 mph - N/A   Overcast
10:31 PM 55.4 °F 51.8 °F 88% 30.01 in 10.0 mi WNW 6.9 mph - N/A   Overcast
10:54 PM 55.0 °F 52.0 °F 89% 30.03 in 10.0 mi West 3.5 mph - N/A   Overcast
11:54 PM 54.0 °F 51.1 °F 90% 30.02 in 10.0 mi NW 3.5 mph - N/A   Overcast